Location: Lansingburgh
(42.7845°N, 73.6696°W)
Time: 03:51:01
(UTC+00:00)

Meteor 2-10 Rocket - Pass Details

Date: 24 January 2020
Orbit: 733 x 885 km, 81.2° (Epoch: 18 February)

Event Time Altitude Azimuth Distance (km) Brightness Sun altitude
Rises 22:51:24 0° 353° (N) 3,313 6.7 -10.2°
Reaches altitude 10° 22:53:53 10° 358° (N) 2,355 5.9 -10.6°
Maximum altitude 22:59:05 56° 77° (ENE) 908 3.5 -11.5°
Drops below altitude 10° 23:04:03 10° 155° (SSE) 2,259 5.8 -12.4°
Sets 23:06:23 0° 160° (SSE) 3,165 6.6 -12.8°
